Weather History for Buffalo, WY

Change the Weather History Date:

Wednesday, April 10, 2013

  Actual Average Record
Temperature  
Mean Temperature 22 °F 41 °F  
Max Temperature 34 °F 52 °F 68 °F (2006)
Min Temperature 10 °F 30 °F 10 °F (2013)
Degree Days  
Heating Degree Days 43 24  
Month to date heating degree days 252 250  
Since 1 July heating degree days 6136 6440  
Cooling Degree Days 0 0  
Month to date cooling degree days 0 0  
Year to date cooling degree days 0 0  
Moisture  
Dew Point 14 °F    
Average Humidity 72    
Maximum Humidity 88    
Minimum Humidity 56    
Precipitation  
Precipitation T in 0.04 in 0.16 in (2014)
Month to date precipitation 0.16 0.29  
Year to date precipitation 0.85 1.98  
Sea Level Pressure  
Sea Level Pressure 30.18 in    
Wind  
Wind Speed 8 mph (SE)    
Max Wind Speed 15 mph    
Max Gust Speed 18 mph    
Visibility 8 miles    
Events Snow    
T = Trace of Precipitation, MM = Missing Value Source: NWS Daily Summary

Daily Weather History Graph

Daily Weather History Graph

Search for Another Location

Airport:

Trip Planner

Search our weather history database for the weather conditions in past years. The results will help you decide how hot, cold, wet, or windy it might be!

Date:

Astronomy

Apr. 10, 2013 Rise Set
Actual Time 6:31 AM MDT 7:45 PM MDT
Civil Twilight 6:01 AM MDT 8:15 PM MDT
Nautical Twilight 5:25 AM MDT 8:51 PM MDT
Astronomical Twilight 4:47 AM MDT 9:29 PM MDT
Moon 6:27 AM MDT (4/10) 8:26 PM MDT (4/10)
Length of Visible Light 14h 14m
Length of Day
13h 14m
Waxing Crescent, 0% of the Moon is Illuminated
Apr 10
Waxing Crescent
Apr 18
First Quarter
Apr 25
Full
May 2
Last Quarter
May 9
New

Hourly Weather History & Observations

Time (MDT) Temp. Windchill Dew Point Humidity Pressure Visibility Wind Dir Wind Speed Gust Speed Precip Events Conditions
12:53 AM 14.0 °F 8.2 °F 10.0 °F 84% 30.39 in 6.0 mi North 3.5 mph - N/A   Overcast
1:53 AM 15.1 °F 3.3 °F 10.0 °F 80% 30.35 in 5.0 mi NW 9.2 mph - 0.00 in Snow Light Snow
2:53 AM 16.0 °F 10.4 °F 10.9 °F 81% 30.33 in 7.0 mi NE 3.5 mph - 0.00 in Snow Light Snow
3:09 AM 15.8 °F 8.6 °F 10.4 °F 79% 30.16 in 1.8 mi ENE 4.6 mph - 0.00 in Snow Light Snow
3:20 AM 15.8 °F 8.6 °F 10.4 °F 79% 30.16 in 2.5 mi ENE 4.6 mph - 0.00 in Snow Light Snow
3:31 AM 15.8 °F 10.2 °F 10.4 °F 79% 30.16 in 3.0 mi East 3.5 mph - 0.00 in Snow Light Snow
3:53 AM 15.1 °F 9.4 °F 10.9 °F 84% 30.33 in 4.0 mi ESE 3.5 mph - 0.00 in Snow Light Snow
4:08 AM 15.8 °F - 10.4 °F 79% 30.16 in 2.0 mi Calm Calm - 0.00 in Snow Light Snow
4:40 AM 14.0 °F - 10.4 °F 86% 30.14 in 4.0 mi Calm Calm - 0.00 in Snow Light Snow
4:53 AM 14.0 °F 6.5 °F 10.0 °F 84% 30.32 in 6.0 mi SSE 4.6 mph - 0.00 in Snow Light Snow
5:53 AM 12.9 °F 5.2 °F 10.0 °F 88% 30.33 in 10.0 mi SSW 4.6 mph - N/A   Overcast
6:53 AM 10.9 °F 1.4 °F 7.0 °F 84% 30.34 in 10.0 mi South 5.8 mph - N/A   Mostly Cloudy
7:53 AM 12.9 °F 2.6 °F 8.1 °F 81% 30.34 in 10.0 mi SSE 6.9 mph - N/A   Clear
8:53 AM 17.1 °F 10.0 °F 10.0 °F 74% 30.32 in 10.0 mi SSE 4.6 mph - N/A   Clear
9:53 AM 21.0 °F 11.4 °F 12.0 °F 68% 30.30 in 10.0 mi SE 8.1 mph - N/A   Clear
10:53 AM 21.9 °F 9.8 °F 12.9 °F 68% 30.28 in 10.0 mi SE 12.7 mph - N/A   Clear
12:53 PM 25.0 °F 14.2 °F 17.1 °F 72% 30.22 in 10.0 mi SSE 11.5 mph - N/A   Clear
1:53 PM 28.0 °F 19.3 °F 17.1 °F 63% 30.17 in 10.0 mi South 9.2 mph - N/A   Clear
2:53 PM 30.9 °F 24.3 °F 21.0 °F 67% 30.12 in 10.0 mi ESE 6.9 mph - N/A   Clear
3:53 PM 33.1 °F 24.9 °F 21.9 °F 64% 30.09 in 10.0 mi ESE 10.4 mph - N/A   Clear
4:53 PM 34.0 °F 25.5 °F 19.0 °F 54% 30.06 in 10.0 mi SE 11.5 mph - N/A   Clear
5:53 PM 30.9 °F 20.7 °F 21.0 °F 67% 30.06 in 10.0 mi SE 13.8 mph - N/A   Clear
6:53 PM 30.0 °F 21.7 °F 21.0 °F 69% 30.05 in 10.0 mi SSE 9.2 mph - N/A   Clear
7:53 PM 27.0 °F 16.7 °F 19.9 °F 75% 30.02 in 10.0 mi SSE 11.5 mph - N/A   Mostly Cloudy
8:53 PM 27.0 °F 17.3 °F 19.9 °F 75% 29.99 in 10.0 mi SE 10.4 mph - N/A   Overcast
9:53 PM 28.0 °F 19.3 °F 21.0 °F 75% 29.95 in 10.0 mi SSE 9.2 mph - N/A   Overcast
10:53 PM 26.1 °F 21.9 °F 19.9 °F 78% 29.93 in 10.0 mi South 3.5 mph - N/A   Overcast
11:53 PM 25.0 °F 20.7 °F 19.0 °F 78% 29.90 in 10.0 mi SSE 3.5 mph - N/A   Clear